Theta_e
341 338 337 337 337 336 336 337 336 334 335 334 333 334 331 325 328 330 329 329 329 330 330 328 328 327 327 327 326 327 327 328 328 328 328 327 325 326 327 328 327 326 326 327 327 325 327 331 332 333 333 333 333 333 333 333 333 332 333 332 331 330
340 339 338 338 338 338 337 338 336 335 335 334 334 334 330 326 328 331 330 331 331 332 331 330 330 329 328 328 327 327 327 327 328 328 328 329 328 327 327 327 326 326 326 326 326 326 327 331 332 332 333 333 333 334 333 332 333 333 332 332 331 329
340 338 339 338 337 338 338 337 336 336 336 335 335 333 330 327 329 331 331 332 332 332 332 332 331 330 329 329 329 328 327 327 327 327 327 328 328 328 327 327 326 325 326 326 327 327 328 330 332 332 332 333 334 334 333 332 333 333 332 331 331 329
339 339 338 337 337 338 339 338 336 337 337 336 335 334 332 329 329 330 331 333 333 334 334 333 333 332 331 330 329 329 329 327 327 327 327 327 328 329 329 328 327 326 326 326 328 328 328 330 331 332 332 332 333 333 333 332 332 333 332 331 330 327
339 338 338 337 338 338 339 338 338 338 337 336 336 335 334 331 329 330 331 333 334 335 336 335 335 334 333 331 331 331 330 328 328 327 327 327 328 328 328 328 328 327 327 327 327 328 327 329 330 331 332 332 332 332 332 331 331 332 331 331 329 325
338 337 338 337 337 338 339 339 339 338 337 336 336 336 335 332 329 330 332 334 334 336 337 337 337 336 335 333 333 332 331 329 328 327 327 327 327 326 328 328 328 328 328 327 326 327 327 328 329 331 332 331 331 331 331 331 331 330 330 331 327 324
338 337 338 338 337 338 338 338 338 338 337 337 337 336 335 332 330 330 332 335 335 336 337 336 336 336 336 334 334 334 333 332 328 326 326 327 326 326 327 328 328 328 327 326 326 327 327 327 328 330 331 331 331 330 331 331 331 330 330 331 328 325
337 338 338 338 338 338 337 337 337 337 337 337 336 335 333 331 331 332 333 335 335 336 336 335 336 336 336 335 335 334 333 333 330 326 325 326 327 327 328 327 327 328 327 326 327 328 327 327 328 330 330 331 331 330 330 331 331 331 330 331 329 326
337 337 337 337 338 339 337 337 337 337 337 337 334 332 333 332 332 333 333 335 335 335 334 335 335 336 335 334 334 333 332 333 331 328 325 325 328 330 329 328 327 328 327 327 329 329 328 327 328 330 330 330 332 331 331 331 331 331 331 331 330 327
337 335 335 338 338 338 338 337 337 338 338 337 336 333 332 333 332 333 334 336 336 336 336 336 336 336 335 335 334 333 333 333 333 331 327 326 328 330 330 329 329 328 327 328 330 329 328 327 328 330 330 330 332 332 331 332 331 331 331 332 330 328
335 333 334 337 336 337 337 337 337 338 337 337 337 334 331 331 333 335 335 334 332 333 336 336 336 334 333 335 335 333 334 335 335 332 329 328 329 330 331 330 329 329 328 330 330 329 328 328 329 328 329 330 331 330 330 331 332 331 331 330 330 330
330 330 332 333 334 335 336 337 337 337 337 337 336 333 330 331 333 336 335 333 332 333 334 333 333 332 332 333 334 333 335 336 335 333 330 330 330 331 332 330 329 328 329 331 331 329 328 328 328 327 328 329 330 330 330 331 331 330 329 329 328 328
328 328 329 330 332 335 335 336 337 337 336 337 335 333 333 334 336 337 334 334 335 334 334 334 334 334 333 333 332 331 335 337 335 333 331 330 331 331 332 331 329 329 330 331 331 330 328 328 327 327 327 328 329 330 331 332 331 331 330 329 327 326
327 328 328 330 332 333 334 335 337 337 336 336 335 335 337 338 338 337 336 336 336 335 335 336 335 335 334 333 332 331 332 336 334 334 332 331 332 332 332 332 330 331 331 331 331 330 329 328 328 327 327 327 327 329 331 332 331 331 331 330 328 327
328 329 329 331 332 334 337 337 338 337 337 337 337 338 339 339 337 336 336 335 335 334 335 335 335 335 334 333 333 331 331 334 333 333 334 333 333 334 333 332 331 331 330 330 331 330 329 329 328 328 328 328 327 328 330 330 330 330 330 331 331 330
332 331 332 332 334 337 339 339 340 339 338 338 338 338 336 335 334 333 333 332 332 333 334 335 334 334 334 334 334 333 332 333 332 333 334 334 334 334 333 332 331 332 331 330 331 330 330 329 329 328 328 328 328 329 328 328 329 329 329 329 331 331
336 334 334 335 338 340 340 340 340 339 339 338 337 335 332 331 331 331 332 331 331 332 333 333 334 334 334 334 333 333 332 331 332 333 334 334 334 334 333 332 331 331 331 331 331 331 329 328 329 328 329 329 328 328 327 327 328 328 327 327 328 329
338 336 336 339 340 341 340 340 339 339 338 336 333 331 330 332 332 332 332 332 332 332 332 333 333 334 334 333 333 332 331 331 332 332 333 333 333 333 332 331 330 330 330 330 331 330 329 328 329 328 328 328 327 326 326 326 326 326 325 324 325 325
339 338 338 340 340 340 339 338 339 338 336 333 330 329 330 331 331 331 330 331 331 332 332 333 332 333 333 333 333 332 331 331 332 332 332 332 331 332 331 330 330 330 329 329 330 330 329 328 328 328 327 327 326 326 326 325 325 324 323 322 323 323
339 339 339 340 339 338 338 338 337 336 333 330 328 329 329 328 329 329 329 330 331 332 332 332 332 332 332 333 332 331 331 331 332 333 333 333 331 331 331 331 330 329 329 330 329 330 329 328 327 328 328 327 327 327 327 326 325 324 323 321 321 321
339 339 339 338 337 337 338 336 335 333 331 328 329 329 327 326 327 329 330 330 330 331 331 331 331 331 331 332 331 330 331 332 332 333 333 333 331 330 330 330 330 329 329 329 329 328 328 327 328 329 329 328 328 328 329 328 326 324 322 320 319 319
339 338 338 336 333 335 336 335 333 331 328 328 329 328 326 325 327 328 330 330 330 330 330 330 330 330 330 331 330 331 331 331 332 332 331 331 331 330 330 329 328 328 328 329 329 328 327 327 329 329 329 329 329 328 328 328 326 323 321 320 320 321
337 337 337 335 332 332 333 332 331 328 327 328 328 327 325 325 326 327 328 329 329 329 330 330 329 329 329 330 330 330 330 330 332 331 331 331 330 331 330 328 327 327 327 328 328 327 327 327 329 329 329 329 329 328 327 328 326 323 320 321 322 322
336 336 336 333 331 331 330 330 329 327 327 327 328 327 326 325 326 327 328 327 328 327 328 328 328 328 329 329 330 330 330 331 331 330 330 330 330 330 329 328 327 326 326 328 328 327 327 327 328 328 328 328 327 327 326 326 327 324 321 321 321 321
336 336 334 330 330 330 329 329 328 328 328 327 327 328 326 325 324 325 326 326 326 325 325 324 324 326 327 327 327 328 328 329 329 329 329 329 329 329 329 328 327 326 326 328 329 328 328 327 327 327 327 327 327 327 326 325 326 324 320 318 318 317
337 335 331 329 329 329 328 328 327 328 328 328 328 328 326 324 322 322 322 322 322 322 322 321 321 322 324 324 324 324 326 326 328 328 328 328 328 329 329 329 328 327 327 328 328 328 327 327 327 326 324 325 326 325 326 326 326 324 319 317 317 314
336 333 329 328 328 327 327 326 326 326 327 327 326 326 324 322 321 320 320 320 320 319 319 319 319 321 322 322 321 322 323 325 326 327 328 327 328 329 329 328 328 328 328 327 327 328 327 326 327 326 324 324 325 322 322 325 325 324 322 319 316 313
334 331 328 327 326 325 325 325 324 326 326 325 323 323 322 320 320 319 319 319 318 318 318 318 318 320 322 321 320 319 320 323 324 325 327 328 327 328 327 328 327 327 327 327 327 328 327 326 327 327 325 326 326 323 323 324 324 324 323 318 314 312
331 329 327 326 325 324 324 324 324 325 326 324 321 321 320 319 319 319 319 318 318 318 317 318 317 318 322 321 319 317 318 322 324 325 326 327 327 327 328 328 327 327 327 326 327 328 327 327 327 327 327 327 326 326 325 324 323 323 320 316 313 313
328 327 326 324 323 323 324 323 322 324 325 322 321 320 319 319 318 318 318 318 317 318 317 318 317 317 320 320 318 317 318 322 325 324 325 325 326 327 327 327 327 327 327 326 326 328 328 328 327 327 327 326 324 324 324 322 319 317 315 314 313 314
325 325 324 323 322 322 323 322 321 323 323 322 321 320 319 318 318 318 318 317 317 317 317 317 317 317 318 318 317 318 319 322 323 323 323 324 324 324 325 325 325 326 326 327 327 327 327 327 327 327 326 324 321 320 319 317 315 312 310 312 313 314
323 323 322 321 322 322 322 321 321 322 323 322 321 320 318 317 316 317 317 317 317 317 316 316 316 316 317 317 317 316 318 320 321 321 322 322 321 322 322 322 323 324 325 326 326 327 327 326 325 324 321 318 315 315 314 312 312 311 310 311 313 314
321 321 321 320 321 321 321 322 322 322 323 322 320 319 318 315 314 315 316 316 316 315 315 315 316 316 316 316 316 316 318 320 320 320 320 320 319 321 320 318 319 320 322 323 324 324 324 322 320 317 313 311 311 311 309 307 307 307 308 310 312 314
321 320 319 319 320 321 320 321 321 322 322 321 320 319 316 314 313 314 315 315 315 315 315 315 316 316 315 315 316 317 319 319 319 319 319 319 319 320 318 315 315 316 316 317 318 318 317 315 313 311 309 307 306 305 303 303 304 305 307 310 311 313
322 321 320 318 318 319 319 320 321 322 321 320 320 317 315 314 314 314 315 315 315 314 314 315 316 315 313 313 314 316 318 318 318 317 316 317 317 316 315 315 314 312 311 312 312 311 311 309 307 306 305 303 302 301 301 302 305 307 309 309 310 312
323 321 319 318 317 319 319 320 321 321 320 319 318 316 315 315 315 315 315 315 315 315 314 314 313 312 311 311 311 315 317 316 316 315 314 314 314 313 313 313 310 308 308 308 307 306 304 303 302 301 301 300 301 303 303 305 306 307 308 307 308 310
322 320 320 319 318 318 319 320 320 320 319 317 316 316 315 315 314 314 316 316 315 315 314 313 312 311 311 309 308 311 312 311 311 310 309 310 310 311 310 308 306 305 306 305 303 302 300 300 299 300 300 300 302 305 306 306 307 307 307 307 307 308
Wind_Speed
19 19 19 20 18 17 18 18 17 14 13 13 12 12 11 12 13 12 11 11 10 10 9 9 9 8 8 8 7 7 7 7 7 7 7 7 8 8 7 6 6 6 6 6 6 8 10 11 10 8 8 10 10 7 6 4 3 3 3 4 5 5
18 18 18 18 17 16 17 18 16 15 14 13 12 12 12 13 13 12 11 11 10 10 9 9 9 8 8 8 7 7 7 7 6 6 6 6 6 7 6 5 6 6 6 6 6 8 10 10 9 7 7 9 9 8 6 5 3 2 2 3 3 4
18 18 18 17 17 16 17 17 16 15 14 14 13 13 13 14 13 12 12 11 10 10 10 10 9 8 8 8 7 7 7 6 6 6 6 6 6 6 5 5 6 6 6 5 6 7 8 10 9 7 7 8 9 8 6 5 3 2 2 2 2 3
17 18 18 17 16 16 16 17 17 16 15 15 14 14 13 14 14 12 11 10 10 10 10 10 9 9 9 8 8 7 7 6 5 5 5 5 5 5 5 5 6 6 6 5 6 6 6 9 10 8 7 8 9 8 7 5 3 2 1 1 1 2
16 17 17 16 16 16 17 17 17 16 15 15 14 14 13 13 13 12 11 10 10 10 10 10 9 9 9 9 8 7 7 6 5 5 5 4 4 4 4 4 5 5 5 5 5 5 6 8 8 7 7 8 9 9 7 5 3 2 1 1 1 1
15 16 16 16 16 15 15 15 15 15 15 14 13 13 12 12 12 11 10 9 10 10 9 9 9 9 9 9 8 7 6 5 5 5 5 4 4 4 4 4 4 4 4 4 5 5 5 7 7 6 6 6 9 9 7 5 3 2 1 1 0 1
15 15 14 15 14 13 15 15 14 13 14 13 13 12 11 11 11 11 10 9 9 9 9 9 8 8 8 8 7 6 6 5 5 5 5 5 4 4 4 4 4 4 4 5 5 5 5 6 5 5 5 6 7 9 6 4 3 3 1 1 0 1
15 14 13 13 13 13 14 15 14 13 13 13 13 12 11 12 12 11 11 9 9 8 7 7 7 8 7 7 7 5 5 5 5 5 5 5 5 5 5 4 4 4 5 5 5 5 5 6 5 4 5 7 7 7 6 5 4 4 2 1 0 0
14 14 13 12 13 13 14 14 14 13 12 12 13 13 13 13 13 12 11 9 7 6 7 7 7 8 8 8 7 5 4 4 4 5 4 5 5 6 5 5 5 5 5 5 5 5 5 6 5 4 4 5 6 6 5 5 4 5 3 1 0 0
14 14 12 12 13 13 13 13 12 12 11 10 10 12 13 13 13 12 10 8 7 7 7 7 6 7 7 7 7 6 4 3 4 5 5 5 5 6 5 5 6 6 6 6 5 6 7 7 5 4 3 4 5 4 3 3 4 5 2 1 0 0
14 14 13 12 12 11 11 11 11 10 10 9 8 9 11 12 12 10 9 9 9 10 9 8 6 6 6 6 7 6 4 4 4 4 5 5 5 6 6 6 6 7 7 6 6 7 8 8 6 4 4 4 3 3 4 4 4 5 3 2 2 1
15 16 15 14 12 11 10 10 10 9 9 9 8 8 10 10 9 9 9 10 10 11 11 10 8 7 8 7 7 7 5 4 4 4 5 5 6 6 6 6 7 7 6 6 6 7 8 8 6 5 4 3 2 4 4 3 2 4 5 3 3 2
17 16 16 15 13 11 10 9 8 8 8 7 7 7 8 7 8 8 9 11 11 11 11 10 9 8 8 7 7 9 6 3 3 4 5 6 6 6 5 6 6 6 6 5 5 6 7 7 6 4 4 3 2 3 2 1 2 1 1 1 4 3
17 18 16 15 14 12 11 10 8 8 8 7 7 7 7 7 8 9 10 11 11 11 10 10 10 9 9 7 7 9 8 4 3 4 6 6 6 6 5 5 6 6 5 5 5 6 7 6 5 5 4 3 2 2 1 1 2 2 1 1 3 4
19 18 17 15 15 13 11 11 9 8 8 7 6 5 6 7 8 8 8 9 9 8 9 10 10 9 8 7 5 6 8 5 3 5 6 6 5 5 5 5 5 5 6 8 6 7 7 6 6 5 4 3 3 3 2 2 1 1 2 2 2 4
20 18 17 16 14 13 11 10 10 9 7 6 5 4 5 5 5 5 6 7 6 5 5 8 10 9 7 7 5 5 8 6 4 5 5 5 5 5 5 4 4 5 6 7 5 7 6 6 6 6 5 4 4 4 3 3 2 2 1 1 0 3
18 18 16 15 13 11 11 10 9 9 7 5 4 3 2 2 3 3 4 4 4 3 4 6 9 9 8 7 5 6 8 6 4 5 5 5 5 5 4 3 5 7 5 6 5 6 7 7 7 7 6 5 5 4 4 3 1 1 3 3 3 2
17 17 16 14 12 11 11 10 9 9 7 6 4 2 1 1 2 2 2 2 2 2 3 5 6 8 8 7 7 8 8 5 5 5 5 5 5 5 5 3 7 8 5 6 5 6 8 8 8 8 7 6 5 4 3 1 1 2 3 4 4 3
18 18 17 14 13 12 11 10 10 9 8 6 4 3 3 2 2 2 1 1 2 3 3 3 5 6 6 7 8 8 6 5 5 4 5 5 5 6 6 5 7 8 7 5 4 5 7 7 7 6 5 5 4 2 1 1 1 1 2 3 3 2
20 19 17 15 14 13 10 9 10 10 9 8 6 5 5 4 3 3 3 4 3 4 4 3 3 4 5 6 6 5 5 5 4 4 4 4 5 6 6 7 8 9 8 6 4 5 6 6 6 5 3 3 2 1 1 1 1 1 3 4 3 3
22 20 18 18 17 15 13 12 12 11 10 9 7 7 6 5 5 5 5 6 6 6 5 5 4 3 4 5 5 4 4 4 3 3 3 3 4 5 7 8 9 9 9 7 6 5 6 7 6 5 3 2 1 1 1 1 1 2 3 4 3 3
22 21 20 20 19 19 18 17 15 13 12 10 9 8 7 6 5 5 6 6 6 7 6 7 6 5 4 4 5 5 4 3 2 3 3 3 4 5 6 8 9 9 8 7 6 6 7 7 6 4 4 3 2 2 1 2 2 3 4 5 4 3
22 22 21 21 21 20 19 18 16 14 13 11 10 9 7 6 6 6 7 7 7 8 7 7 8 8 7 6 6 5 5 4 3 4 5 4 4 5 6 7 8 8 8 7 5 5 7 6 4 5 4 3 2 2 3 3 4 6 7 6 5 4
23 23 23 23 22 21 20 18 15 14 13 11 11 10 8 7 8 7 8 9 9 9 9 8 8 9 8 8 7 7 6 5 4 5 5 5 4 4 6 7 7 7 8 7 6 5 7 6 5 6 4 2 1 1 2 4 5 8 9 9 9 7
24 25 25 24 24 22 20 19 15 14 13 11 10 10 8 9 9 9 9 10 10 10 9 8 8 7 7 8 8 8 7 5 5 5 5 5 5 5 5 7 8 8 8 8 7 7 7 6 5 6 5 3 1 1 2 4 4 7 10 11 11 10
27 27 26 25 24 23 21 20 18 17 15 12 11 9 8 10 11 10 10 9 9 8 7 7 6 5 6 7 8 7 7 6 5 4 4 4 5 6 6 7 8 8 8 8 8 7 7 6 5 6 8 5 1 4 5 3 3 5 9 11 11 11
30 29 28 26 25 23 23 21 20 19 17 14 13 11 10 10 10 10 9 9 7 7 6 6 5 4 5 6 7 7 6 6 5 4 3 4 4 5 6 7 8 8 8 8 8 7 7 7 6 6 7 5 4 8 8 5 3 5 6 7 11 14
31 30 28 27 26 25 24 23 21 18 16 15 13 13 12 10 9 9 8 8 7 7 7 7 6 5 6 6 6 5 5 4 4 3 3 4 5 5 6 8 9 9 8 7 6 6 7 8 7 8 7 5 5 7 7 5 4 5 6 6 8 12
32 31 30 27 27 26 25 22 20 18 16 15 13 13 13 12 10 9 7 7 7 7 7 6 5 5 6 7 6 5 3 3 4 4 5 5 5 6 6 7 9 9 8 7 6 6 7 7 7 9 8 6 6 7 6 6 6 6 6 6 6 8
31 30 30 28 27 26 24 22 19 17 16 15 14 13 13 12 11 9 8 7 6 5 5 4 4 4 5 6 5 3 3 3 5 6 6 7 7 6 6 7 8 8 7 7 7 5 6 7 7 9 9 8 8 8 7 7 7 6 6 5 7 8
32 31 29 28 28 27 24 21 19 16 14 13 11 11 11 11 10 9 9 8 7 5 4 3 3 4 4 4 3 2 3 5 7 8 8 8 7 6 6 6 7 7 7 7 7 7 7 8 8 9 9 8 8 7 7 6 6 6 6 7 8 9
12 23 28 28 27 26 24 21 18 15 13 11 9 8 7 8 8 8 8 8 7 6 5 4 4 4 4 4 4 3 4 6 7 8 9 8 7 7 7 8 9 9 9 8 9 10 10 10 11 11 11 10 9 8 7 7 6 6 6 9 10 10
12 9 15 23 24 22 21 20 17 15 13 10 8 6 6 6 7 7 7 8 8 7 6 5 5 6 5 5 4 4 4 5 6 7 7 7 6 7 9 11 12 12 12 13 13 13 13 13 13 14 13 12 11 10 9 9 9 9 8 10 11 11
11 13 12 8 10 10 10 11 13 13 12 10 9 7 6 7 7 6 7 7 7 7 7 7 7 6 6 4 3 4 4 5 5 6 6 6 6 8 10 12 12 12 13 14 14 14 14 14 13 12 12 12 12 12 12 11 11 10 9 9 11 13
19 12 9 10 2 5 7 9 11 11 11 11 11 9 8 8 7 7 7 7 6 7 7 7 7 6 5 4 3 4 4 4 5 5 6 6 7 9 10 10 10 10 12 12 12 12 12 12 12 11 11 12 14 13 13 13 12 10 8 8 11 14
13 11 6 6 8 11 14 16 16 14 14 13 12 10 10 10 8 7 8 7 6 6 6 6 7 6 4 3 4 5 4 4 4 4 5 6 8 9 8 8 9 10 11 12 11 12 12 12 12 12 12 13 15 15 14 14 13 13 13 12 11 10
11 11 12 16 21 20 19 19 18 15 14 14 11 9 8 8 8 7 9 8 6 6 6 6 6 5 3 3 4 5 5 4 4 4 5 6 7 7 6 7 9 11 11 11 11 12 13 13 13 13 13 15 16 16 15 15 14 14 14 15 13 10
Wind_Direction
170 170 171 175 179 180 178 177 177 171 163 159 158 160 162 164 162 159 161 158 152 148 143 139 134 131 127 126 127 121 117 117 120 121 117 111 112 116 121 125 113 103 97 102 126 143 140 133 139 159 173 179 180 174 173 173 167 160 148 145 138 145
169 169 170 173 176 177 177 177 176 173 169 165 162 164 166 169 169 167 168 167 162 157 151 147 144 139 135 133 133 128 123 120 118 119 122 119 116 118 122 127 120 112 105 102 119 137 139 132 133 151 170 178 178 174 176 180 181 180 159 145 148 158
168 168 169 170 172 175 175 176 176 175 172 169 167 168 171 174 176 175 175 175 170 165 159 155 152 145 142 141 139 136 130 124 119 118 120 123 126 128 129 129 123 116 111 106 113 126 136 136 134 143 163 176 178 176 177 186 194 196 189 155 160 169
170 168 169 168 170 174 174 175 177 177 174 173 173 171 176 179 182 182 181 180 175 171 166 164 161 155 152 149 147 146 139 129 126 124 121 125 135 142 142 133 126 120 116 110 113 118 130 138 138 143 159 174 179 180 181 187 201 209 215 180 180 175
172 168 169 168 169 174 174 175 177 177 175 176 176 174 180 184 185 187 186 185 183 179 175 174 173 168 162 157 156 154 148 139 135 135 133 132 139 154 162 150 132 124 118 108 115 122 134 144 141 141 152 174 181 181 182 185 203 218 225 212 216 170
173 170 171 171 170 173 174 176 177 177 176 179 181 180 184 188 190 192 192 195 194 188 185 185 185 178 170 167 167 164 156 151 151 147 143 144 144 152 168 172 150 133 122 110 116 123 142 154 145 140 136 161 180 178 182 188 204 240 244 227 268 135
174 171 171 171 169 172 176 177 178 178 179 182 186 187 189 192 197 200 199 202 202 198 194 195 198 190 181 177 174 170 169 164 162 159 151 146 142 145 157 170 163 147 130 119 120 121 146 155 141 152 126 119 164 170 177 194 216 254 282 293 349 106
176 170 169 170 168 172 178 178 179 180 184 188 189 190 194 199 204 206 205 207 211 210 206 207 207 203 196 189 182 170 169 171 168 170 158 142 136 140 146 153 152 146 133 121 113 112 148 157 129 150 132 110 138 157 172 195 228 260 294 349 24 122
178 171 167 167 171 178 181 180 181 184 190 195 196 196 199 205 208 209 210 213 223 231 232 231 220 215 211 201 193 174 165 167 169 180 168 146 139 136 140 145 139 138 129 112 99 100 139 162 138 134 143 130 139 150 175 200 233 257 286 343 60 137
179 172 169 171 177 181 184 184 186 190 193 197 201 202 204 208 211 212 215 218 230 240 242 240 230 228 223 213 203 186 181 178 169 186 182 161 145 135 137 139 135 133 124 104 89 101 131 159 152 138 163 174 170 178 210 234 243 250 278 30 125 2
181 176 175 177 182 183 185 188 190 194 197 201 204 206 211 215 216 213 217 226 233 236 239 239 238 243 240 232 219 203 198 196 180 186 188 174 153 138 135 139 142 135 121 102 86 101 128 148 147 135 166 190 198 193 213 252 259 254 265 344 5 11
184 184 185 186 187 186 187 189 193 197 200 205 207 213 223 225 222 219 228 237 237 239 243 246 248 250 248 244 240 233 221 203 186 180 186 182 163 147 140 140 146 139 121 98 87 105 125 140 144 131 145 165 163 156 182 224 231 247 261 294 319 335
190 192 194 195 195 194 195 194 196 201 203 210 218 230 240 239 232 234 242 244 242 243 245 247 250 251 248 247 252 258 254 219 186 180 181 185 175 161 151 143 146 140 119 106 106 118 126 135 139 122 125 139 149 151 166 187 143 171 262 270 255 270
196 199 200 202 206 205 206 204 202 209 212 219 227 235 249 252 245 246 251 252 254 257 255 252 250 247 248 245 243 259 266 242 190 186 182 187 184 171 165 157 150 135 138 167 160 133 123 124 120 108 118 130 164 194 232 239 186 178 164 163 215 247
201 203 204 208 213 213 213 212 210 214 216 222 232 240 251 260 260 264 269 271 273 269 263 262 258 251 247 247 240 250 263 253 203 187 183 189 189 179 176 172 155 145 179 202 170 135 131 130 129 123 130 144 161 181 197 223 230 191 205 204 211 238
206 205 208 213 216 217 216 213 211 212 216 224 239 252 262 274 280 279 281 285 284 268 247 253 261 261 248 248 250 241 252 250 207 180 179 189 192 188 189 184 157 151 195 216 177 152 155 148 148 145 149 165 158 148 124 107 90 45 28 25 269 247
213 208 210 213 214 215 210 204 203 204 209 223 237 253 271 280 273 266 264 266 269 250 213 218 240 251 244 242 241 232 242 237 187 172 176 186 191 190 192 186 148 142 189 220 194 172 169 162 158 153 157 167 162 155 131 106 109 16 3 352 338 296
223 214 209 208 207 206 200 194 194 197 202 213 219 215 210 218 202 214 234 228 222 220 206 193 207 222 227 227 218 219 227 201 159 162 169 173 181 186 189 175 146 149 191 219 204 182 175 171 162 159 167 169 164 165 169 180 266 287 322 327 326 325
225 217 205 201 200 199 195 190 192 195 196 199 194 174 156 152 153 159 149 143 165 174 183 184 185 192 203 212 208 212 208 172 150 145 147 153 165 180 184 172 150 155 187 213 214 190 180 177 165 165 184 185 175 178 225 267 264 279 346 353 347 348
217 214 199 196 196 195 192 190 195 193 190 186 172 153 140 123 111 109 99 99 121 139 140 141 163 176 189 203 205 205 191 167 152 139 139 143 152 164 166 168 158 148 157 168 177 181 181 178 162 148 165 187 176 155 172 151 91 54 40 33 31 30
208 206 196 196 197 196 194 192 194 189 185 178 161 148 132 104 93 100 103 101 106 115 111 105 117 148 173 192 195 187 172 155 150 140 136 136 143 155 160 168 163 145 144 154 158 174 175 167 161 152 153 171 154 119 138 112 65 61 63 60 52 35
201 199 197 199 197 197 198 196 194 188 184 173 158 149 132 107 95 103 111 109 105 104 103 102 105 115 136 168 180 170 157 147 150 146 146 148 143 156 165 168 164 147 143 155 161 168 167 163 170 165 157 162 142 111 102 94 83 69 63 81 88 55
198 198 199 200 197 196 196 197 196 189 184 175 161 149 129 115 108 108 110 108 106 104 104 104 104 109 118 136 156 159 156 152 142 141 144 146 145 157 171 175 174 162 148 150 156 164 172 179 178 155 149 167 154 124 122 101 72 56 56 70 77 51
199 198 198 199 196 194 193 195 196 190 183 173 158 148 132 122 116 114 111 106 106 106 105 106 105 109 114 121 131 134 136 136 128 131 135 144 157 168 180 186 189 179 159 153 158 170 186 192 180 167 156 126 124 176 141 110 76 59 65 75 74 68
199 199 197 196 194 194 192 190 188 182 177 164 153 150 141 132 127 122 117 112 109 105 101 98 96 102 111 114 116 115 113 113 112 121 133 151 166 172 183 188 189 189 182 173 165 167 184 187 182 191 183 143 142 192 128 120 108 76 75 80 76 73
199 198 195 194 194 194 194 191 185 177 172 165 157 158 152 144 139 130 122 119 112 104 98 94 91 98 114 116 114 113 111 112 115 123 142 156 165 170 177 181 181 184 187 182 169 161 170 175 177 190 187 181 167 143 139 141 142 107 91 81 68 67
197 195 193 193 195 196 195 193 190 184 179 173 164 160 161 153 145 137 128 125 116 110 109 108 110 119 128 124 117 116 116 122 127 131 152 163 162 163 167 170 170 171 175 175 170 164 165 170 167 166 175 176 144 147 160 166 155 146 127 90 69 71
194 193 193 194 197 199 198 195 192 188 178 171 165 159 160 157 147 140 130 124 117 116 117 115 117 126 141 141 125 114 116 129 135 128 139 154 157 156 157 164 166 168 170 171 172 170 170 173 163 148 153 156 139 149 163 165 160 158 147 122 91 83
192 192 193 197 199 200 200 197 194 189 174 163 161 156 156 155 148 142 132 123 117 117 118 117 116 121 139 143 126 104 96 124 142 134 129 136 142 146 151 161 167 173 176 173 172 168 166 168 159 150 152 149 136 134 131 129 134 134 132 134 125 112
190 192 194 196 198 198 198 197 196 191 177 163 158 155 152 150 147 143 137 129 122 120 115 115 120 123 133 133 123 111 89 111 139 135 130 133 135 141 149 160 168 176 179 173 169 163 153 152 152 155 156 147 138 133 128 124 124 126 125 128 132 134
188 190 194 196 196 196 195 196 196 192 182 169 162 161 159 156 153 148 142 137 134 133 123 119 126 125 128 123 115 115 101 113 133 135 131 132 133 133 136 144 153 160 166 168 166 156 143 139 142 149 153 150 147 140 138 137 138 142 141 139 138 136
201 192 192 194 196 196 195 194 195 191 185 179 175 175 176 172 166 156 146 141 139 138 129 126 132 127 126 123 110 103 109 123 132 136 134 130 125 120 117 121 127 130 134 141 147 145 140 138 138 142 145 148 145 134 130 132 138 144 144 144 143 137
321 273 211 196 197 198 195 193 191 188 186 185 186 190 195 188 174 163 154 147 140 138 132 127 135 135 129 124 115 111 121 128 129 132 135 132 127 121 117 117 116 117 120 124 129 133 134 136 137 138 139 138 134 126 123 126 129 129 129 136 139 136
253 288 297 254 207 189 177 175 177 181 184 186 190 195 201 194 178 166 159 152 142 136 135 134 139 141 133 122 118 124 131 132 130 134 138 136 131 126 123 121 117 117 118 120 124 128 131 135 136 136 137 135 131 124 119 119 119 121 127 135 141 141
206 223 291 317 282 154 147 153 164 181 190 192 195 195 193 187 179 172 164 156 148 139 138 143 147 145 136 125 124 136 143 143 143 143 142 139 135 133 131 128 125 124 124 126 130 132 134 136 134 134 136 133 127 121 118 117 114 112 115 129 142 146
189 179 202 262 242 203 186 178 176 188 195 193 192 189 182 175 171 174 171 164 159 154 151 156 158 153 145 135 135 145 154 157 153 145 141 141 140 140 139 136 135 132 131 134 135 134 134 134 132 132 134 131 126 121 118 115 110 104 102 110 129 145
162 167 190 225 233 218 195 179 173 179 185 182 176 171 171 171 167 170 180 182 177 174 175 176 175 169 161 148 139 144 150 148 145 136 135 143 147 147 144 139 136 131 130 133 132 130 130 130 131 132 133 130 125 120 117 111 105 100 96 98 105 108